GW3042 Weather Reports


Display with metric or nautical units.
time (UTC)temp
F
wind
direction
speed
MPH
gust
MPH
rain 1hr
in
rain 24hr
in
rain mn
in
humidity
%
barometer
mb
20260902143003 84 141 1.0 5.0 0.00 0.00 0.00 55 1016.2
20260902141552 85 35 1.0 5.0 0.00 0.00 0.00 54 1016.3
20260902140027 86 129 1.0 5.0 0.00 0.00 0.00 56 1016.4
20260902134509 87 330 0.0 3.0 0.00 0.00 0.00 54 1016.5
20260902133051 87 4 0.0 2.0 0.00 0.00 0.00 54 1016.7
20260902131535 86 232 0.0 3.0 0.00 0.00 0.00 56 1016.7
20260902130018 86 40 0.0 0.0 0.00 0.00 0.00 56 1016.9
20260902124501 86 98 0.0 0.0 0.00 0.00 0.00 53 1017.0
20260902123049 86 139 0.0 0.0 0.00 0.00 0.00 55 1017.3
20260902121528 85 34 0.0 0.0 0.00 0.00 0.00 59 1017.6
20260902120007 85 103 0.0 0.0 0.00 0.00 0.00 56 1017.8
20260902114549 84 290 0.0 0.0 0.00 0.00 0.00 55 1018.0
20260902113033 83 133 0.0 0.0 0.00 0.00 0.00 58 1018.1
20260902111512 83 108 0.0 0.0 0.00 0.00 0.00 57 1018.5
20260902110058 83 168 0.0 0.0 0.00 0.00 0.00 57 1018.7
20260902104541 81 113 0.0 0.0 0.00 0.00 0.00 55 1018.7
20260902103022 80 141 0.0 0.0 0.00 0.00 0.00 57 1018.9
20260902101504 79 142 0.0 0.0 0.00 0.00 0.00 59 1019.1
20260902100045 79 141 0.0 0.0 0.00 0.00 0.00 57 1019.3
20260902094528 78 142 0.0 0.0 0.00 0.00 0.00 59 1019.3
20260902093009 77 141 0.0 0.0 0.00 0.00 0.00 63 1019.4
20260902091554 76 151 0.0 0.0 0.00 0.00 0.00 65 1019.5
20260902090035 75 151 0.0 0.0 0.00 0.00 0.00 68 1019.6
20260902084524 74 148 0.0 0.0 0.00 0.00 0.00 72 1019.8
20260902083105 74 147 0.0 0.0 0.00 0.00 0.00 70 1019.5
20260902081544 72 146 0.0 0.0 0.00 0.00 0.00 74 1019.7
20260902080021 71 154 0.0 0.0 0.00 0.00 0.00 75 1019.7
20260902074504 71 154 0.0 0.0 0.00 0.00 0.00 77 1019.4
20260902073044 70 154 0.0 0.0 0.00 0.00 0.00 78 1019.5
20260902071516 69 154 0.0 0.0 0.00 0.00 0.00 78 1019.6
20260902064545 68 154 0.0 0.0 0.00 0.00 0.00 82 1019.5
20260902063052 66 154 0.0 0.0 0.00 0.00 0.00 85 1019.6
20260902061503 65 154 0.0 0.0 0.00 0.00 0.00 87 1019.7
20260902060056 65 154 0.0 0.0 0.00 0.00 0.00 87 1019.7
20260902054527 65 154 0.0 0.0 0.00 0.00 0.00 88 1019.5
20260902053007 65 154 0.0 0.0 0.00 0.00 0.00 88 1019.4
20260902051557 65 154 0.0 0.0 0.00 0.00 0.00 88 1019.4
20260902050032 65 154 0.0 0.0 0.00 0.00 0.00 87 1019.4
20260902044513 65 154 0.0 0.0 0.00 0.00 0.00 87 1019.2
20260902043107 66 154 0.0 0.0 0.00 0.00 0.00 87 1019.1
20260902041541 66 154 0.0 0.0 0.00 0.00 0.00 87 1019.0
20260902040100 66 154 0.0 0.0 0.00 0.00 0.00 87 1019.0
20260902034535 66 154 0.0 0.0 0.00 0.00 0.00 86 1018.9
20260902033012 66 154 0.0 0.0 0.00 0.00 0.00 86 1018.9
20260902031604 66 154 0.0 0.0 0.00 0.00 0.00 85 1018.9
20260902030034 67 154 0.0 0.0 0.00 0.00 0.00 86 1018.9
20260902024519 67 154 0.0 0.0 0.00 0.00 0.00 86 1018.9
20260902023104 67 154 0.0 0.0 0.00 0.00 0.00 86 1018.9
20260902021548 67 154 0.0 0.0 0.00 0.00 0.00 86 1018.9
20260902020030 67 154 0.0 0.0 0.00 0.00 0.00 85 1018.9
20260902014512 68 154 0.0 0.0 0.00 0.00 0.00 85 1018.8
20260902013055 68 154 0.0 0.0 0.00 0.00 0.00 85 1018.8
20260902011528 68 154 0.0 0.0 0.00 0.00 0.00 85 1018.8
20260902010009 67 154 0.0 0.0 0.00 0.00 0.00 85 1018.9
20260902004600 68 154 0.0 0.0 0.00 0.00 0.00 85 1018.9
20260902003110 68 154 0.0 0.0 0.00 0.00 0.00 85 1018.9
20260902001514 68 154 0.0 0.0 0.00 0.00 0.00 85 1018.9
20260902000103 68 154 0.0 0.0 0.00 0.00 0.00 84 1018.8
20260901234537 68 154 0.0 0.0 0.00 0.00 0.00 84 1018.7
20260901233015 68 154 0.0 0.0 0.00 0.00 0.00 84 1018.7
20260901231603 69 154 0.0 1.0 0.00 0.00 0.00 84 1018.8
20260901230040 69 154 0.0 0.0 0.00 0.00 0.00 83 1018.9
20260901224525 70 154 0.0 0.0 0.00 0.00 0.00 82 1018.9
20260901223007 70 154 0.0 0.0 0.00 0.00 0.00 81 1018.8
20260901221556 70 154 0.0 0.0 0.00 0.00 0.00 81 1018.9
20260901220040 71 154 0.0 0.0 0.00 0.00 0.00 80 1018.7
20260901214510 71 154 0.0 0.0 0.00 0.00 0.00 79 1018.7
20260901213102 72 154 0.0 0.0 0.00 0.00 0.00 78 1018.7
20260901211540 72 154 0.0 1.0 0.00 0.00 0.00 77 1018.6
20260901210015 73 154 0.0 0.0 0.00 0.00 0.00 76 1018.6
20260901204558 73 154 0.0 2.0 0.00 0.00 0.00 75 1018.5
20260901203039 74 154 0.0 0.0 0.00 0.00 0.00 74 1018.3
20260901201514 74 154 0.0 1.0 0.00 0.00 0.00 74 1018.3
20260901200056 74 154 0.0 7.0 0.00 0.00 0.00 73 1018.1
20260901194526 74 148 3.0 8.0 0.00 0.00 0.00 73 1017.9
20260901193007 75 143 2.0 7.0 0.00 0.00 0.00 74 1017.7
20260901191600 75 156 1.0 3.0 0.00 0.00 0.00 72 1017.5
20260901190028 76 146 2.0 4.0 0.00 0.00 0.00 71 1017.3
20260901184511 78 13 0.0 2.0 0.00 0.00 0.00 69 1017.2
20260901183050 79 11 0.0 2.0 0.00 0.00 0.00 67 1017.0
20260901181537 79 11 0.0 1.0 0.00 0.00 0.00 66 1016.7
20260901180011 80 11 0.0 0.0 0.00 0.00 0.00 64 1016.6
20260901174557 81 11 0.0 4.0 0.00 0.00 0.00 63 1016.6
20260901173035 81 351 0.0 3.0 0.00 0.00 0.00 62 1016.3
20260901171508 82 5 1.0 4.0 0.00 0.00 0.00 61 1016.2
20260901170057 82 354 1.0 4.0 0.00 0.00 0.00 60 1016.3
20260901164530 82 29 2.0 6.0 0.00 0.00 0.00 59 1016.2
20260901163009 83 44 1.0 5.0 0.00 0.00 0.00 58 1016.3
20260901161553 84 90 1.0 8.0 0.00 0.00 0.00 55 1016.1
20260901160030 85 63 0.0 4.0 0.00 0.00 0.00 53 1016.1
20260901154504 85 81 0.0 5.0 0.00 0.00 0.00 51 1016.2
20260901153052 86 39 1.0 4.0 0.00 0.00 0.00 51 1016.0
20260901151533 86 95 1.0 4.0 0.00 0.00 0.00 51 1016.0
20260901150003 87 81 1.0 5.0 0.00 0.00 0.00 52 1016.0
20260901144547 87 52 1.0 6.0 0.00 0.00 0.00 50 1016.2